Regional Weather Roundup
Issued by NWS

Home | Current Version | Previous Version | Graphics & Text | Print | Product List | Glossary On
Versions: 1 2 3 4 5 6 7 8 9 10 11 12 13 14 15 16 17 18 19 20 21 22 23 24 25 26 27 28 29 30 31 32 33 34 35 36 37 38 39 40 41 42 43 44 45 46 47 48 49 50
000
ASUS44 KMEG 080610
RWRTN
TENNESSEE HOURLY STATE WEATHER ROUNDUP
NATIONAL WEATHER SERVICE MEMPHIS TN
1200 AM CST MON FEB 08 2016

TNZ002-004-019-021-049-052-054-088>092-080700-
WEST TENNESSEE

CITY           SKY/WX    TMP DP  RH WIND       PRES   REMARKS
MEMPHIS INTL   CLOUDY    47  31  53 W5        29.95F
NWS MEMPHIS      N/A     48 N/A N/A MISG        N/A
JACKSON        PTCLDY    45  31  58 W9        29.92F
DYERSBURG      CLOUDY    46  30  53 W8        29.94S
UNION CITY     PTCLDY    45  34  65 W5        29.88F
PARIS          CLOUDY    43  28  56 W12       29.89S
$$

TNZ008-025-027-028-033-062-065-066-080700-
NORTH MIDDLE TENNESSEE

CITY           SKY/WX    TMP DP  RH WIND       PRES   REMARKS
NASHVILLE      CLOUDY    48  24  39 SW9       29.86F
CLARKSVILLE    CLOUDY    48  31  51 NW20G30   29.86S
SMYRNA         CLEAR     42  26  53 S8        29.87F
COOKEVILLE     CLEAR     36  25  64 SW7       29.86F WCI  30
CROSSVILLE     CLEAR     39  19  44 SW3       29.86F
$$

TNZ061-075-076-078-094-096-097-080700-
SOUTH MIDDLE TENNESSEE

CITY           SKY/WX    TMP DP  RH WIND       PRES   REMARKS
FAYETTEVILLE   CLEAR     39  25  56 S5        29.91F
TULLAHOMA      CLEAR     37  21  52 S7        29.89F WCI  32
WINCHESTER     CLEAR     43  25  49 SW7       29.91F
MCMINNVILLE    CLEAR     39  21  48 S5        29.87F
COLUMBIA       CLEAR     43  30  61 SW9       29.87F
SHELBYVILLE    CLEAR     43  28  56 S7        29.89F
$$

TNZ017-018-042-046-047-080700-
NORTHEAST TENNESSEE

CITY           SKY/WX    TMP DP  RH WIND       PRES   REMARKS
TRI CITIES     PTCLDY    27  24  89 CALM      29.89F
$$

TNZ012-013-036-069-073-074-080700-
CENTRAL EAST TENNESSEE

CITY           SKY/WX    TMP DP  RH WIND       PRES   REMARKS
KNOXVILLE      MOCLDY    39  23  52 SW9       29.90F WCI  33
OAK RIDGE      PTCLDY    35  27  72 CALM      29.91F
GATLINBURG     CLEAR     28  23  80 CALM      29.90F
MORRISTOWN     PTCLDY    37  23  56 SW5       29.88F WCI  34
$$

TNZ083-085-099-080700-
SOUTHEAST TENNESSEE

CITY           SKY/WX    TMP DP  RH WIND       PRES   REMARKS
CHATTANOOGA    CLEAR     40  25  55 CALM      29.93F
$$

SKY/WX REPORTED AS FAIR MEANS FEW OR NO CLOUDS BELOW
12 THOUSAND FEET.




USA.gov is the U.S. government's official web portal to all federal, state and local government web resources and services.